Time,TemperatureF,DewpointF,PressureIn,WindDirection,WindDirectionDegrees,WindSpeedMPH,WindSpeedGustMPH,Humidity,HourlyPrecipIn,Conditions,Clouds,dailyrainin,SoftwareType,DateUTC
2013-02-02 00:10:00,62.6,57.0,30.19,SE,141,5.0,9.0,82,0.00,,,0.00,weatherlink.com 1.10,2013-02-02 06:10:00,
2013-02-02 00:40:00,62.4,57.0,30.18,SSE,161,5.0,8.0,83,0.00,,,0.00,weatherlink.com 1.10,2013-02-02 06:40:00,
2013-02-02 00:55:00,62.2,57.0,30.18,SSE,160,4.0,6.0,83,0.00,,,0.00,weatherlink.com 1.10,2013-02-02 06:55:00,
2013-02-02 01:10:00,62.1,57.0,30.18,SSE,157,4.0,7.0,83,0.00,,,0.00,weatherlink.com 1.10,2013-02-02 07:10:00,
2013-02-02 01:25:00,62.0,57.0,30.17,South,173,7.0,8.0,83,0.00,,,0.00,weatherlink.com 1.10,2013-02-02 07:25:00,
2013-02-02 01:40:00,61.9,57.0,30.17,South,183,7.0,9.0,83,0.00,,,0.00,weatherlink.com 1.10,2013-02-02 07:40:00,
2013-02-02 01:55:00,61.6,56.0,30.17,SSE,154,3.0,7.0,83,0.00,,,0.00,weatherlink.com 1.10,2013-02-02 07:55:00,
2013-02-02 02:10:00,61.5,56.0,30.16,SSE,161,2.0,7.0,83,0.00,,,0.00,weatherlink.com 1.10,2013-02-02 08:10:00,
2013-02-02 02:25:00,61.4,57.0,30.16,SSE,147,4.0,6.0,84,0.00,,,0.00,weatherlink.com 1.10,2013-02-02 08:25:00,
2013-02-02 02:40:00,61.4,57.0,30.16,SSE,154,5.0,7.0,85,0.00,,,0.00,weatherlink.com 1.10,2013-02-02 08:40:00,
2013-02-02 02:55:00,61.4,57.0,30.15,SSE,148,3.0,7.0,85,0.00,,,0.00,weatherlink.com 1.10,2013-02-02 08:55:00,
2013-02-02 03:10:00,61.5,57.0,30.16,SSE,158,2.0,5.0,85,0.00,,,0.00,weatherlink.com 1.10,2013-02-02 09:10:00,
2013-02-02 03:25:00,61.6,57.0,30.15,SSE,152,3.0,5.0,85,0.00,,,0.00,weatherlink.com 1.10,2013-02-02 09:25:00,
2013-02-02 03:40:00,61.5,57.0,30.16,SSE,148,2.0,3.0,86,0.00,,,0.00,weatherlink.com 1.10,2013-02-02 09:40:00,
2013-02-02 03:55:00,61.4,57.0,30.16,SSE,148,0.0,4.0,86,0.00,,,0.00,weatherlink.com 1.10,2013-02-02 09:55:00,
2013-02-02 04:10:00,61.3,57.0,30.16,SSE,148,2.0,4.0,86,0.00,,,0.00,weatherlink.com 1.10,2013-02-02 10:10:00,
2013-02-02 04:25:00,61.1,57.0,30.15,SE,135,1.0,4.0,87,0.00,,,0.00,weatherlink.com 1.10,2013-02-02 10:25:00,
2013-02-02 04:40:00,61.0,57.0,30.16,SE,135,0.0,1.0,87,0.00,,,0.00,weatherlink.com 1.10,2013-02-02 10:40:00,
2013-02-02 04:55:00,60.9,57.0,30.15,SE,146,2.0,4.0,87,0.00,,,0.00,weatherlink.com 1.10,2013-02-02 10:55:00,
2013-02-02 05:10:00,60.9,57.0,30.15,SE,143,4.0,5.0,87,0.00,,,0.00,weatherlink.com 1.10,2013-02-02 11:10:00,
2013-02-02 05:25:00,60.7,57.0,30.15,SSE,147,2.0,3.0,87,0.00,,,0.00,weatherlink.com 1.10,2013-02-02 11:25:00,
2013-02-02 05:40:00,60.6,57.0,30.16,SE,142,1.0,5.0,88,0.00,,,0.00,weatherlink.com 1.10,2013-02-02 11:40:00,
2013-02-02 05:55:00,60.6,57.0,30.16,SE,137,2.0,3.0,88,0.00,,,0.00,weatherlink.com 1.10,2013-02-02 11:55:00,
2013-02-02 06:10:00,60.6,57.0,30.17,SE,137,2.0,3.0,88,0.00,,,0.00,weatherlink.com 1.10,2013-02-02 12:10:00,
2013-02-02 06:26:00,60.5,57.0,30.17,SE,137,2.0,4.0,89,0.00,,,0.00,weatherlink.com 1.10,2013-02-02 12:26:00,
2013-02-02 06:40:00,60.7,58.0,30.18,SE,137,2.0,3.0,89,0.00,,,0.00,weatherlink.com 1.10,2013-02-02 12:40:00,
2013-02-02 06:56:00,61.0,58.0,30.18,SE,131,3.0,4.0,89,0.00,,,0.00,weatherlink.com 1.10,2013-02-02 12:56:00,
2013-02-02 07:11:00,61.5,58.0,30.18,SE,139,2.0,6.0,87,0.00,,,0.00,weatherlink.com 1.10,2013-02-02 13:11:00,
2013-02-02 07:25:00,61.8,58.0,30.19,SE,135,3.0,6.0,87,0.00,,,0.00,weatherlink.com 1.10,2013-02-02 13:25:00,
2013-02-02 07:40:00,62.3,58.0,30.19,ESE,123,3.0,6.0,86,0.00,,,0.00,weatherlink.com 1.10,2013-02-02 13:40:00,
2013-02-02 07:55:00,62.5,58.0,30.19,SE,125,4.0,6.0,85,0.00,,,0.00,weatherlink.com 1.10,2013-02-02 13:55:00,
2013-02-02 08:11:00,62.6,58.0,30.20,ESE,105,4.0,5.0,85,0.00,,,0.00,weatherlink.com 1.10,2013-02-02 14:11:00,
2013-02-02 08:25:00,63.7,59.0,30.20,ESE,104,4.0,7.0,84,0.00,,,0.00,weatherlink.com 1.10,2013-02-02 14:25:00,
2013-02-02 08:41:00,64.9,59.0,30.20,ESE,117,5.0,8.0,80,0.00,,,0.00,weatherlink.com 1.10,2013-02-02 14:41:00,
2013-02-02 08:56:00,65.6,59.0,30.20,SE,137,5.0,8.0,78,0.00,,,0.00,weatherlink.com 1.10,2013-02-02 14:56:00,
2013-02-02 09:11:00,66.2,58.0,30.20,ESE,115,7.0,9.0,76,0.00,,,0.00,weatherlink.com 1.10,2013-02-02 15:11:00,
2013-02-02 09:26:00,67.0,59.0,30.21,SE,133,4.0,8.0,75,0.00,,,0.00,weatherlink.com 1.10,2013-02-02 15:26:00,
2013-02-02 09:41:00,67.3,58.0,30.21,ESE,123,10.0,10.0,73,0.00,,,0.00,weatherlink.com 1.10,2013-02-02 15:41:00,
2013-02-02 09:56:00,68.1,59.0,30.22,SE,132,4.0,9.0,72,0.00,,,0.00,weatherlink.com 1.10,2013-02-02 15:56:00,
2013-02-02 10:11:00,67.8,60.0,30.22,SSE,147,5.0,10.0,75,0.00,,,0.00,weatherlink.com 1.10,2013-02-02 16:11:00,
2013-02-02 10:26:00,68.0,59.0,30.22,SE,136,6.0,9.0,74,0.00,,,0.00,weatherlink.com 1.10,2013-02-02 16:26:00,
2013-02-02 10:41:00,68.3,60.0,30.22,ESE,120,6.0,10.0,74,0.00,,,0.00,weatherlink.com 1.10,2013-02-02 16:41:00,
2013-02-02 10:56:00,70.0,60.0,30.22,SE,131,9.0,10.0,71,0.00,,,0.00,weatherlink.com 1.10,2013-02-02 16:56:00,
2013-02-02 11:11:00,70.0,60.0,30.21,SE,138,6.0,12.0,70,0.00,,,0.00,weatherlink.com 1.10,2013-02-02 17:11:00,
2013-02-02 11:26:00,69.2,59.0,30.21,ESE,117,8.0,13.0,71,0.00,,,0.00,weatherlink.com 1.10,2013-02-02 17:26:00,
2013-02-02 11:41:00,69.3,60.0,30.21,SE,124,5.0,13.0,72,0.00,,,0.00,weatherlink.com 1.10,2013-02-02 17:41:00,
2013-02-02 11:56:00,69.5,60.0,30.21,SE,125,7.0,12.0,71,0.00,,,0.00,weatherlink.com 1.10,2013-02-02 17:56:00,
2013-02-02 12:11:00,69.6,60.0,30.20,SE,137,6.0,11.0,71,0.00,,,0.00,weatherlink.com 1.10,2013-02-02 18:11:00,
2013-02-02 12:26:00,70.1,59.0,30.19,ESE,105,7.0,12.0,69,0.00,,,0.00,weatherlink.com 1.10,2013-02-02 18:26:00,
2013-02-02 12:41:00,69.5,60.0,30.19,ESE,108,8.0,13.0,71,0.00,,,0.00,weatherlink.com 1.10,2013-02-02 18:41:00,
2013-02-02 12:56:00,69.6,59.0,30.18,ESE,115,8.0,13.0,70,0.00,,,0.00,weatherlink.com 1.10,2013-02-02 18:56:00,
2013-02-02 13:11:00,71.1,60.0,30.18,East,93,7.0,13.0,69,0.00,,,0.00,weatherlink.com 1.10,2013-02-02 19:11:00,
2013-02-02 13:26:00,70.6,60.0,30.17,ESE,114,7.0,13.0,68,0.00,,,0.00,weatherlink.com 1.10,2013-02-02 19:26:00,
2013-02-02 13:41:00,69.4,60.0,30.16,ESE,111,9.0,12.0,73,0.00,,,0.00,weatherlink.com 1.10,2013-02-02 19:41:00,
2013-02-02 13:56:00,69.3,60.0,30.16,ESE,114,12.0,12.0,73,0.00,,,0.00,weatherlink.com 1.10,2013-02-02 19:56:00,
2013-02-02 14:11:00,68.4,61.0,30.16,ESE,106,11.0,11.0,76,0.00,,,0.00,weatherlink.com 1.10,2013-02-02 20:11:00,
2013-02-02 14:26:00,69.1,61.0,30.16,ESE,111,12.0,13.0,74,0.00,,,0.00,weatherlink.com 1.10,2013-02-02 20:26:00,
2013-02-02 14:41:00,68.4,61.0,30.16,ESE,105,10.0,11.0,77,0.00,,,0.00,weatherlink.com 1.10,2013-02-02 20:41:00,
2013-02-02 14:56:00,68.0,61.0,30.16,ESE,109,7.0,13.0,78,0.00,,,0.00,weatherlink.com 1.10,2013-02-02 20:56:00,
2013-02-02 15:11:00,68.4,62.0,30.16,East,94,9.0,12.0,79,0.00,,,0.00,weatherlink.com 1.10,2013-02-02 21:11:00,
2013-02-02 15:26:00,68.5,61.0,30.16,ENE,71,8.0,11.0,77,0.00,,,0.00,weatherlink.com 1.10,2013-02-02 21:26:00,
2013-02-02 15:41:00,67.2,61.0,30.14,ENE,78,7.0,13.0,80,0.00,,,0.00,weatherlink.com 1.10,2013-02-02 21:41:00,
2013-02-02 15:56:00,67.6,61.0,30.14,ENE,75,8.0,14.0,80,0.00,,,0.00,weatherlink.com 1.10,2013-02-02 21:56:00,
2013-02-02 16:11:00,67.2,61.0,30.14,ESE,107,8.0,14.0,81,0.00,,,0.00,weatherlink.com 1.10,2013-02-02 22:11:00,
2013-02-02 16:26:00,67.1,62.0,30.14,East,84,10.0,14.0,83,0.00,,,0.00,weatherlink.com 1.10,2013-02-02 22:26:00,
2013-02-02 16:41:00,66.7,61.0,30.14,East,86,10.0,13.0,83,0.00,,,0.00,weatherlink.com 1.10,2013-02-02 22:41:00,
2013-02-02 16:56:00,66.3,61.0,30.14,East,86,7.0,13.0,84,0.00,,,0.00,weatherlink.com 1.10,2013-02-02 22:56:00,
2013-02-02 17:11:00,66.0,61.0,30.14,East,84,7.0,13.0,85,0.00,,,0.00,weatherlink.com 1.10,2013-02-02 23:11:00,
2013-02-02 17:26:00,65.7,62.0,30.15,East,86,9.0,13.0,86,0.00,,,0.00,weatherlink.com 1.10,2013-02-02 23:26:00,
2013-02-02 17:42:00,65.0,61.0,30.15,East,101,8.0,11.0,87,0.00,,,0.00,weatherlink.com 1.10,2013-02-02 23:42:00,
2013-02-02 17:56:00,64.4,61.0,30.15,East,98,5.0,10.0,89,0.00,,,0.00,weatherlink.com 1.10,2013-02-02 23:56:00,
2013-02-02 18:12:00,63.8,61.0,30.16,East,86,5.0,9.0,90,0.00,,,0.00,weatherlink.com 1.10,2013-02-03 00:12:00,
2013-02-02 18:27:00,63.6,61.0,30.16,ESE,109,4.0,8.0,90,0.00,,,0.00,weatherlink.com 1.10,2013-02-03 00:27:00,
2013-02-02 18:41:00,63.8,61.0,30.17,ESE,102,7.0,10.0,91,0.00,,,0.00,weatherlink.com 1.10,2013-02-03 00:41:00,
2013-02-02 18:56:00,63.5,61.0,30.17,ESE,104,5.0,8.0,91,0.00,,,0.00,weatherlink.com 1.10,2013-02-03 00:56:00,
2013-02-02 19:11:00,63.3,61.0,30.17,ESE,105,4.0,7.0,91,0.00,,,0.00,weatherlink.com 1.10,2013-02-03 01:11:00,
2013-02-02 19:29:00,63.0,60.0,30.18,ESE,111,4.0,6.0,91,0.00,,,0.00,weatherlink.com 1.10,2013-02-03 01:29:00,
2013-02-02 19:41:00,63.0,61.0,30.18,ESE,116,4.0,6.0,92,0.00,,,0.00,weatherlink.com 1.10,2013-02-03 01:41:00,
2013-02-02 19:57:00,62.9,60.0,30.19,ESE,109,2.0,6.0,91,0.00,,,0.00,weatherlink.com 1.10,2013-02-03 01:57:00,
2013-02-02 20:11:00,62.9,60.0,30.20,SE,145,4.0,7.0,91,0.00,,,0.00,weatherlink.com 1.10,2013-02-03 02:11:00,
2013-02-02 20:26:00,63.0,60.0,30.20,SSE,148,3.0,6.0,91,0.00,,,0.00,weatherlink.com 1.10,2013-02-03 02:26:00,
2013-02-02 20:41:00,63.1,60.0,30.20,SE,124,2.0,6.0,90,0.00,,,0.00,weatherlink.com 1.10,2013-02-03 02:41:00,
2013-02-02 20:56:00,62.8,60.0,30.21,East,92,2.0,4.0,90,0.00,,,0.00,weatherlink.com 1.10,2013-02-03 02:56:00,
2013-02-02 21:12:00,62.5,60.0,30.21,East,96,3.0,4.0,91,0.00,,,0.00,weatherlink.com 1.10,2013-02-03 03:12:00,
2013-02-02 21:26:00,62.4,60.0,30.21,East,100,2.0,3.0,91,0.00,,,0.00,weatherlink.com 1.10,2013-02-03 03:26:00,
2013-02-02 21:41:00,62.4,60.0,30.21,ESE,104,1.0,4.0,91,0.00,,,0.00,weatherlink.com 1.10,2013-02-03 03:41:00,
2013-02-02 21:56:00,62.3,60.0,30.21,East,99,2.0,5.0,91,0.00,,,0.00,weatherlink.com 1.10,2013-02-03 03:56:00,
2013-02-02 22:11:00,62.3,60.0,30.21,East,96,1.0,4.0,91,0.00,,,0.00,weatherlink.com 1.10,2013-02-03 04:11:00,
2013-02-02 22:26:00,62.1,60.0,30.21,East,96,0.0,2.0,91,0.00,,,0.00,weatherlink.com 1.10,2013-02-03 04:26:00,
2013-02-02 22:41:00,62.0,60.0,30.22,East,96,1.0,1.0,92,0.00,,,0.00,weatherlink.com 1.10,2013-02-03 04:41:00,
2013-02-02 22:56:00,61.7,59.0,30.22,East,96,1.0,2.0,92,0.00,,,0.00,weatherlink.com 1.10,2013-02-03 04:56:00,
2013-02-02 23:12:00,61.6,59.0,30.22,East,96,0.0,1.0,92,0.00,,,0.00,weatherlink.com 1.10,2013-02-03 05:12:00,
2013-02-02 23:26:00,61.6,59.0,30.22,East,96,0.0,1.0,92,0.00,,,0.00,weatherlink.com 1.10,2013-02-03 05:26:00,
2013-02-02 23:42:00,61.4,59.0,30.22,East,96,0.0,2.0,92,0.00,,,0.00,weatherlink.com 1.10,2013-02-03 05:42:00,
2013-02-02 23:57:00,61.3,59.0,30.22,East,96,1.0,2.0,93,0.00,,,0.00,weatherlink.com 1.10,2013-02-03 05:57:00,